Weather History for KMRH - June, 2014

Change the Weather History Date:

Sunday, June 8, 2014

  Actual Average (WUND) Record (WUND)
Temperature  
Mean Temperature 70 °F -  
Max Temperature 81 °F - - (-1)
Min Temperature 61 °F - - (-1)
Cooling Degree Days 6    
Growing Degree Days 20 (Base 50)    
Moisture  
Dew Point 60 °F    
Average Humidity 68    
Maximum Humidity 90    
Minimum Humidity 42    
Precipitation  
Precipitation 0.00 in - - ()
Sea Level Pressure  
Sea Level Pressure 29.98 in    
Wind  
Wind Speed 4 mph (SE)    
Max Wind Speed 12 mph    
Max Gust Speed 18 mph    
Visibility 10 miles    
Events      
Averages and records for this station are not official NWS values.
T = Trace of Precipitation, MM = Missing Value Source: NWS Daily Summary

Daily Weather History Graph

Daily Weather History Graph

Search for Another Location

Airport or City:

Trip Planner

Search our weather history database for the weather conditions in past years. The results will help you decide how hot, cold, wet, or windy it might be!

Date:

Astronomy

Jun. 08, 2014 Rise Set
Actual Time 5:53 AM EDT 8:18 PM EDT
Civil Twilight 5:23 AM EDT 8:47 PM EDT
Nautical Twilight 4:47 AM EDT 9:24 PM EDT
Astronomical Twilight 4:07 AM EDT 10:03 PM EDT
Moon 3:44 PM EDT (6/8) 2:33 AM EDT (6/8)
Length of Visible Light 15h 24m
Length of Day
14h 25m
Waxing Gibbous, 77% of the Moon is Illuminated
Jun 8
Waxing Gibbous
Jun 13
Full
Jun 19
Last Quarter
Jun 27
New
Jul 5
First Quarter

Hourly Weather History & Observations

Time (EDT) Temp. Heat Index Dew Point Humidity Pressure Visibility Wind Dir Wind Speed Gust Speed Precip Events Conditions
12:58 AM 63.0 °F - 59.0 °F 87% 29.99 in 10.0 mi NE 3.5 mph - N/A   Clear
1:58 AM 62.1 °F - 57.9 °F 86% 29.99 in 10.0 mi Calm Calm - N/A   Clear
2:58 AM 61.0 °F - 57.9 °F 90% 29.98 in 10.0 mi Calm Calm - N/A   Clear
3:58 AM 62.1 °F - 57.0 °F 84% 29.97 in 10.0 mi Calm Calm - N/A   Clear
4:58 AM 61.0 °F - 57.9 °F 90% 29.98 in 10.0 mi Calm Calm - N/A   Clear
5:58 AM 61.0 °F - 57.0 °F 87% 29.99 in 10.0 mi Calm Calm - N/A   Clear
6:58 AM 64.0 °F - 59.0 °F 84% 30.01 in 10.0 mi Calm Calm - N/A   Unknown
7:58 AM 69.1 °F - 64.9 °F 87% 30.02 in 10.0 mi NNW 8.1 mph - N/A   Clear
8:58 AM 73.0 °F - 64.0 °F 73% 30.03 in 10.0 mi NNW 4.6 mph - N/A   Clear
9:58 AM 77.0 °F - 57.0 °F 50% 30.02 in 10.0 mi Variable 5.8 mph - N/A   Clear
10:58 AM 79.0 °F - 57.9 °F 48% 30.03 in 10.0 mi North - - N/A   Clear
11:58 AM 80.1 °F 80.1 °F 55.0 °F 42% 30.01 in 10.0 mi East 6.9 mph - N/A   Clear
12:58 PM 80.1 °F 80.1 °F 55.0 °F 42% 30.01 in 10.0 mi East 9.2 mph 18.4 mph N/A   Clear
1:58 PM 80.1 °F 80.1 °F 55.0 °F 42% 29.99 in 10.0 mi SE 10.4 mph - N/A   Clear
2:58 PM 80.1 °F 80.4 °F 57.0 °F 45% 29.98 in 10.0 mi SE 9.2 mph - N/A   Clear
3:58 PM 79.0 °F - 60.1 °F 52% 29.96 in 10.0 mi SE 11.5 mph - N/A   Clear
4:58 PM 78.1 °F - 60.1 °F 54% 29.96 in 10.0 mi SSE 9.2 mph - N/A   Clear
5:58 PM 77.0 °F - 57.9 °F 52% 29.96 in 10.0 mi SSE 9.2 mph - N/A   Clear
6:58 PM 75.9 °F - 60.1 °F 58% 29.96 in 10.0 mi South 5.8 mph - N/A   Clear
7:58 PM 73.0 °F - 62.1 °F 68% 29.94 in 10.0 mi SSE 5.8 mph - N/A   Clear
8:58 PM 73.0 °F - 64.0 °F 73% 29.94 in 10.0 mi SSE 5.8 mph - N/A   Clear
9:58 PM 73.9 °F - 64.9 °F 73% 29.95 in 10.0 mi SE 4.6 mph - N/A   Clear
10:58 PM 73.9 °F - 66.9 °F 79% 29.96 in 10.0 mi SSE 3.5 mph - N/A   Clear
11:58 PM 73.0 °F - 66.9 °F 81% 29.96 in 10.0 mi SSE 4.6 mph - N/A   Clear